The following orbital elements are taken from MPO121855
Epoch 2007 Oct. 27.0 TT = JDT 2454400.5 MPC
M 1.21929 (2000.0) P Q
n 0.00344290 Peri. 163.40849 +0.13050656 +0.87839383
a 43.4363657 Node 247.92036 +0.84394396 +0.14494922
e 0.9406811 Incl. 150.25362 +0.52031396 -0.45542728
P 286 H 14.6 G 0.15 U 0
From 201 observations at 2 oppositions, 2006-2007, mean residual 0".36.